Oakes, ND

11:54 PM CST on December 13, 2017 (GMT -0600)
Oakes

Weather History for K2D5 - April, 2013

Change the Weather History Date:

Wednesday, April 3, 2013

  Actual Average (KP67) Record (KP67)
Temperature  
Mean Temperature 30 °F -  
Max Temperature 46 °F 39 °F 55 °F (1997)
Min Temperature 15 °F 25 °F 28 °F (1998)
Degree Days  
Heating Degree Days 34    
Moisture  
Dew Point 28 °F    
Average Humidity 93    
Maximum Humidity 100    
Minimum Humidity 81    
Precipitation  
Precipitation 0.00 in - - ()
Sea Level Pressure  
Sea Level Pressure 30.06 in    
Wind  
Wind Speed 13 mph (SSE)    
Max Wind Speed 23 mph    
Max Gust Speed 29 mph    
Visibility 10 miles    
Events      
Averages and records for this station are not official NWS values.
T = Trace of Precipitation, MM = Missing Value Source: NWS Daily Summary

Daily Weather History Graph

Daily Weather History Graph

Search for Another Location

Airport or City:

Trip Planner

Search our weather history database for the weather conditions in past years. The results will help you decide how hot, cold, wet, or windy it might be!

Date:

Astronomy

Apr. 03, 2013 Rise Set
Actual Time 7:07 AM CDT 8:04 PM CDT
Civil Twilight 6:37 AM CDT 8:34 PM CDT
Nautical Twilight 6:00 AM CDT 9:11 PM CDT
Astronomical Twilight 5:22 AM CDT 9:49 PM CDT
Moon 3:11 AM CDT (4/3) 12:57 PM CDT (4/3)
Length of Visible Light 13h 57m
Length of Day
12h 56m
Last Quarter, 44% of the Moon is Illuminated
Apr 3
Last Quarter
Apr 10
New
Apr 18
First Quarter
Apr 25
Full
May 2
Last Quarter

Hourly Weather History & Observations

Time (CDT) Temp. Windchill Dew Point Humidity Pressure Visibility Wind Dir Wind Speed Gust Speed Precip Events Conditions
12:15 AM 19.4 °F 6.0 °F 17.6 °F 93% 30.28 in 10.0 mi East 13.8 mph - N/A   Unknown
12:35 AM 19.4 °F 6.6 °F 17.6 °F 93% 30.27 in 10.0 mi East 12.7 mph - N/A   Unknown
12:55 AM 19.4 °F 7.9 °F 17.6 °F 93% 30.27 in 10.0 mi ESE 10.4 mph - N/A   Unknown
1:15 AM 17.6 °F 6.4 °F 15.8 °F 93% 30.26 in 10.0 mi SE 9.2 mph - N/A   Unknown
1:35 AM 17.6 °F 6.4 °F 15.8 °F 93% 30.26 in 10.0 mi SE 9.2 mph - N/A   Unknown
1:55 AM 17.6 °F 7.3 °F 15.8 °F 93% 30.26 in 10.0 mi SE 8.1 mph - N/A   Unknown
2:15 AM 15.8 °F 4.2 °F 14.0 °F 93% 30.25 in 10.0 mi SE 9.2 mph - N/A   Unknown
2:35 AM 17.6 °F 7.3 °F 15.8 °F 93% 30.24 in 10.0 mi ESE 8.1 mph - N/A   Unknown
2:55 AM 17.6 °F 6.4 °F 15.8 °F 93% 30.24 in 10.0 mi ESE 9.2 mph - N/A   Unknown
3:15 AM 15.8 °F 5.1 °F 15.8 °F 100% 30.23 in 10.0 mi SE 8.1 mph - N/A   Unknown
3:35 AM 15.8 °F 4.2 °F 14.0 °F 93% 30.22 in 10.0 mi SE 9.2 mph - N/A   Unknown
3:55 AM 15.8 °F 5.1 °F 14.0 °F 93% 30.21 in 10.0 mi SSE 8.1 mph - N/A   Unknown
4:15 AM 15.8 °F 5.1 °F 14.0 °F 93% 30.21 in 10.0 mi SSE 8.1 mph - N/A   Unknown
4:35 AM 15.8 °F 4.2 °F 14.0 °F 93% 30.21 in 10.0 mi SSE 9.2 mph - N/A   Unknown
4:55 AM 15.8 °F 3.4 °F 14.0 °F 93% 30.20 in 10.0 mi SSE 10.4 mph - N/A   Unknown
5:15 AM 15.8 °F 2.7 °F 15.8 °F 100% 30.19 in 10.0 mi SE 11.5 mph - N/A   Unknown
5:35 AM 15.8 °F 3.4 °F 15.8 °F 100% 30.19 in 10.0 mi SSE 10.4 mph - N/A   Unknown
5:55 AM 15.8 °F - 15.8 °F 100% 30.18 in 10.0 mi North - - N/A   Unknown
6:15 AM 15.8 °F 4.2 °F 15.8 °F 100% 30.18 in 10.0 mi SE 9.2 mph - N/A   Unknown
6:35 AM 15.8 °F 5.1 °F 15.8 °F 100% 30.17 in 10.0 mi SE 8.1 mph - N/A   Unknown
6:55 AM 15.8 °F 5.1 °F 15.8 °F 100% 30.17 in 10.0 mi SE 8.1 mph - N/A   Unknown
7:15 AM 15.8 °F 5.1 °F 15.8 °F 100% 30.17 in 10.0 mi SE 8.1 mph - N/A   Unknown
7:35 AM 15.8 °F 5.1 °F 15.8 °F 100% 30.16 in 10.0 mi SE 8.1 mph - N/A   Unknown
7:55 AM 17.6 °F 6.4 °F 17.6 °F 100% 30.16 in 10.0 mi SE 9.2 mph - N/A   Unknown
8:15 AM 17.6 °F 5.7 °F 17.6 °F 100% 30.15 in 10.0 mi SE 10.4 mph - N/A   Unknown
8:35 AM 19.4 °F 9.5 °F 19.4 °F 100% 30.15 in 10.0 mi SSE 8.1 mph - N/A   Unknown
8:55 AM 23.0 °F 11.7 °F 23.0 °F 100% 30.14 in 10.0 mi SSE 11.5 mph - N/A   Unknown
9:15 AM 26.6 °F 16.8 °F 24.8 °F 93% 30.13 in 10.0 mi SSE 10.4 mph - N/A   Unknown
9:35 AM 26.6 °F 15.7 °F 26.6 °F 100% 30.12 in 10.0 mi South 12.7 mph - N/A   Unknown
9:55 AM 30.2 °F 19.3 °F 28.4 °F 93% 30.11 in 10.0 mi South 15.0 mph 19.6 mph N/A   Unknown
10:15 AM 32.0 °F 21.6 °F 28.4 °F 87% 30.09 in 10.0 mi South 15.0 mph - N/A   Unknown
10:35 AM 32.0 °F 20.8 °F 30.2 °F 93% 30.09 in 10.0 mi South 17.3 mph 23.0 mph N/A   Unknown
10:55 AM 33.8 °F 22.5 °F 32.0 °F 93% 30.08 in 10.0 mi South 19.6 mph - N/A   Unknown
11:15 AM 33.8 °F 21.6 °F 32.0 °F 93% 30.06 in 10.0 mi South 23.0 mph - N/A   Unknown
11:35 AM 35.6 °F 25.5 °F 32.0 °F 87% 30.05 in 10.0 mi SSE 17.3 mph - N/A   Unknown
11:55 AM 35.6 °F 24.5 °F 32.0 °F 87% 30.04 in 10.0 mi South 20.7 mph 25.3 mph N/A   Unknown
12:15 PM 35.6 °F 24.5 °F 32.0 °F 87% 30.03 in 10.0 mi South 20.7 mph 28.8 mph N/A   Unknown
12:35 PM 35.6 °F 24.5 °F 32.0 °F 87% 30.01 in 10.0 mi SSE 20.7 mph 26.5 mph N/A   Unknown
12:55 PM 35.6 °F 25.2 °F 32.0 °F 87% 30.00 in 10.0 mi SSE 18.4 mph - N/A   Unknown
1:15 PM 37.4 °F 26.6 °F 32.0 °F 81% 29.99 in 10.0 mi South 21.9 mph 25.3 mph N/A   Unknown
1:35 PM 37.4 °F 27.5 °F 33.8 °F 87% 29.98 in 10.0 mi SSE 18.4 mph - N/A   Unknown
1:55 PM 37.4 °F 28.5 °F 35.6 °F 93% 29.98 in 10.0 mi SSE 15.0 mph - N/A   Unknown
2:15 PM 37.4 °F 27.8 °F 35.6 °F 93% 29.97 in 10.0 mi SSE 17.3 mph - N/A   Unknown
2:35 PM 37.4 °F 28.9 °F 35.6 °F 93% 29.96 in 10.0 mi SSE 13.8 mph - N/A   Unknown
2:55 PM 39.2 °F 31.2 °F 35.6 °F 87% 29.96 in 10.0 mi SSE 13.8 mph 18.4 mph N/A   Unknown
3:15 PM 39.2 °F 32.0 °F 37.4 °F 93% 29.96 in 10.0 mi South 11.5 mph - N/A   Unknown
3:35 PM 41.0 °F 33.1 °F 37.4 °F 87% 29.94 in 10.0 mi South 15.0 mph 19.6 mph N/A   Unknown
3:55 PM 41.0 °F 32.5 °F 37.4 °F 87% 29.93 in 10.0 mi South 17.3 mph - N/A   Unknown
4:15 PM 41.0 °F 32.5 °F 37.4 °F 87% 29.91 in 10.0 mi South 17.3 mph - N/A   Unknown
4:35 PM 41.0 °F 32.2 °F 37.4 °F 87% 29.90 in 10.0 mi South 18.4 mph - N/A   Unknown
4:55 PM 39.2 °F 31.6 °F 37.4 °F 93% 29.89 in 10.0 mi South 12.7 mph - N/A   Unknown
5:15 PM 39.2 °F 30.5 °F 39.2 °F 100% 29.87 in 10.0 mi SSE 16.1 mph - N/A   Unknown
5:35 PM 41.0 °F 32.5 °F 39.2 °F 93% 29.85 in 10.0 mi SSE 17.3 mph - N/A   Unknown
5:55 PM 44.6 °F 36.4 °F 39.2 °F 81% 29.84 in 10.0 mi South 20.7 mph - N/A   Unknown
6:15 PM 42.8 °F 34.8 °F 39.2 °F 87% 29.84 in 10.0 mi South 17.3 mph - N/A   Unknown
6:35 PM 44.6 °F 37.8 °F 39.2 °F 81% 29.84 in 10.0 mi South 15.0 mph - N/A   Unknown
6:55 PM 41.0 °F 33.5 °F 39.2 °F 93% 29.85 in 10.0 mi South 13.8 mph - N/A   Unknown
7:15 PM 42.8 °F 34.5 °F 39.2 °F 87% 29.87 in 10.0 mi NW 18.4 mph 27.6 mph N/A   Unknown
7:35 PM 46.4 °F 42.9 °F 41.0 °F 81% 29.88 in 10.0 mi NW 6.9 mph - N/A   Unknown
7:55 PM 41.0 °F 35.8 °F 39.2 °F 93% 29.89 in 10.0 mi NNW 8.1 mph - N/A   Unknown
8:15 PM 41.0 °F 36.4 °F 39.2 °F 93% 29.91 in 10.0 mi North 6.9 mph - N/A   Unknown
8:35 PM 39.2 °F 29.8 °F 37.4 °F 93% 29.92 in 10.0 mi NNW 18.4 mph 25.3 mph N/A   Unknown
8:55 PM 37.4 °F 28.2 °F 37.4 °F 100% 29.94 in 10.0 mi NW 16.1 mph - N/A   Unknown
9:15 PM 37.4 °F 27.8 °F 37.4 °F 100% 29.96 in 10.0 mi NW 17.3 mph - N/A   Unknown
9:35 PM 37.4 °F 28.2 °F 35.6 °F 93% 29.98 in 10.0 mi NNW 16.1 mph 23.0 mph N/A   Unknown
9:55 PM 37.4 °F 26.9 °F 35.6 °F 93% 29.99 in 10.0 mi NW 20.7 mph - N/A   Unknown
10:15 PM 35.6 °F 24.2 °F 33.8 °F 93% 30.00 in 10.0 mi NNW 21.9 mph - N/A   Unknown
10:35 PM 35.6 °F 24.8 °F 33.8 °F 93% 30.00 in 10.0 mi NNW 19.6 mph - N/A   Unknown
10:55 PM 35.6 °F 24.2 °F 33.8 °F 93% 30.01 in 10.0 mi NW 21.9 mph 26.5 mph N/A   Unknown
11:15 PM 35.6 °F 24.5 °F 33.8 °F 93% 30.02 in 10.0 mi NW 20.7 mph - N/A   Unknown
11:35 PM 33.8 °F 23.5 °F 33.8 °F 100% 30.03 in 10.0 mi NNW 16.1 mph - N/A   Unknown
11:55 PM 33.8 °F 23.5 °F 33.8 °F 100% 30.04 in 10.0 mi NNW 16.1 mph - N/A   Unknown